TimeEDT,TemperatureF,Dew PointF,Humidity,Sea Level PressureIn,VisibilityMPH,Wind Direction,Wind SpeedMPH,Gust SpeedMPH,PrecipitationIn,Events,Conditions,WindDirDegrees,DateUTC
12:51 AM,73.9,69.1,85,29.78,9.0,WSW,4.6,-,N/A,,Clear,240,2013-06-26 04:51:00
1:51 AM,73.9,69.1,85,29.77,9.0,West,5.8,-,N/A,,Clear,270,2013-06-26 05:51:00
2:51 AM,73.0,68.0,84,29.75,9.0,West,5.8,-,N/A,,Clear,260,2013-06-26 06:51:00
3:51 AM,72.0,68.0,87,29.75,10.0,SW,5.8,-,N/A,,Clear,230,2013-06-26 07:51:00
4:51 AM,73.0,68.0,84,29.76,10.0,Calm,Calm,-,N/A,,Clear,0,2013-06-26 08:51:00
5:51 AM,73.9,68.0,82,29.78,10.0,West,3.5,-,N/A,,Mostly Cloudy,270,2013-06-26 09:51:00
6:51 AM,73.0,69.1,87,29.78,7.0,SSW,3.5,-,0.00,Rain,Light Rain,210,2013-06-26 10:51:00
7:51 AM,77.0,70.0,79,29.78,10.0,Calm,Calm,-,N/A,,Mostly Cloudy,0,2013-06-26 11:51:00
8:51 AM,81.0,68.0,65,29.79,10.0,WNW,10.4,-,N/A,,Mostly Cloudy,290,2013-06-26 12:51:00
9:51 AM,84.0,69.1,61,29.78,10.0,WNW,5.8,-,N/A,,Mostly Cloudy,300,2013-06-26 13:51:00
10:51 AM,86.0,66.9,53,29.78,10.0,West,10.4,17.3,N/A,,Scattered Clouds,260,2013-06-26 14:51:00
11:51 AM,84.9,66.0,53,29.78,10.0,West,10.4,-,N/A,,Mostly Cloudy,280,2013-06-26 15:51:00
12:51 PM,88.0,66.9,49,29.78,10.0,West,10.4,-,N/A,,Scattered Clouds,280,2013-06-26 16:51:00
1:51 PM,86.0,66.0,51,29.77,10.0,West,10.4,-,N/A,,Mostly Cloudy,260,2013-06-26 17:51:00
2:51 PM,86.0,68.0,55,29.77,10.0,West,9.2,-,N/A,,Mostly Cloudy,260,2013-06-26 18:51:00
3:51 PM,82.0,70.0,67,29.78,10.0,West,11.5,-,0.00,,Overcast,260,2013-06-26 19:51:00
4:51 PM,81.0,71.1,72,29.78,10.0,WNW,9.2,-,0.00,,Overcast,300,2013-06-26 20:51:00
5:51 PM,80.1,71.1,74,29.78,10.0,NW,9.2,-,N/A,,Overcast,310,2013-06-26 21:51:00
6:51 PM,79.0,70.0,74,29.80,10.0,West,8.1,-,N/A,,Mostly Cloudy,280,2013-06-26 22:51:00
7:51 PM,77.0,71.1,82,29.82,9.0,West,5.8,-,0.00,Rain,Light Rain,270,2013-06-26 23:51:00
8:51 PM,75.9,70.0,82,29.81,10.0,West,3.5,-,0.00,,Mostly Cloudy,260,2013-06-27 00:51:00
9:51 PM,75.0,70.0,84,29.83,10.0,WSW,3.5,-,N/A,,Mostly Cloudy,240,2013-06-27 01:51:00
10:51 PM,75.0,70.0,84,29.83,10.0,Calm,Calm,-,N/A,,Mostly Cloudy,0,2013-06-27 02:51:00
11:51 PM,73.9,70.0,87,29.85,9.0,NE,6.9,-,N/A,,Mostly Cloudy,40,2013-06-27 03:51:00